SL-8 R/B

Satellite information

Favourite Embed

Satellite Type and Status

ROCKET BODYIN ORBIT

Key statistics

Satellite SL-8 R/B at a glance.

Uptime

19499

Days in orbit

Revolutions

≈ 14.4

Per day

Orbit

LEO

Low Earth Orbit

Inclination

74.0

Latest

Satellite identification and parameters

Extended collection of information and parameters for SL-8 R/B.

Object identification

Identified? True

Debris? False

Object name: SL-8 R/B

International designator: 1971-114B

Object number (NORAD): 5707

Object ID (CCSDS): 5707

Country: COMMONWEALTH OF INDEPENDENT STATES (CIS)

Current information (Y/N): Y

RCS size: LARGE

Orbital parameters

Period: 99.984 minutes

Inclination: 74.0259 deg

SMA: 7135.879 km

Apoapsis: 775.836 km

Periapsis: 739.653 km

RAAN: 170.3528 deg

Eccentricy: 0.0025353

Argument of periapsis: 256.5282 deg

Mean anomaly: 103.3047 deg

Mean motion: 14.40228921 rev/day

Mean motion (dot): 0.00000316 rev/day2

B* drag term: 0.0001079 1/REarth

Two-line elements (TLE)

Creation date: May 6, 2025, 3:54 a.m.

Reference frame: TEME

Reference center: EARTH

Epoch: May 5, 2025, 8:53 p.m. UTC

TLE line 0: 0 SL-8 R/B

TLE line 1: 1 05707U 71114B 25125.87038162 .00000316 00000-0 10790-3 0 9993

TLE line 2: 2 05707 74.0259 170.3528 0025353 256.5282 103.3047 14.40228921796825

Live tracking on map

Real-time ground track for satellite SL-8 R/B.

In-orbit conjunctions

A list of the most updated potential collisions computed for object SL-8 R/B.

Target Orbit TCA Probability of collision Miss distance Type
NOAA 17 DEB SSO 2025-03-21 06:51:54 0.0001737174 388.0 (m) DEBRIS
CBERS 1 DEB SSO 2024-10-17 13:47:56 0.0001762719 769.0 (m) DEBRIS
COSMOS 2251 DEB LEO 2024-06-23 20:39:03 0.009974697 39.0 (m) DEBRIS

Associated space launch

The DS-P1-Yu series of satellites was used to calibrate space surveillance and early warning radars.

SL-8 R/B was lifted into orbit during the mission ‘Kosmos 11K63 | DS-P1-Yu 49’, on board a Kosmos 11K63 space rocket.

The launch took place on Dec. 17, 1971, 10:39 a.m. from 133/3 (133L).

For more information about the launch, click the button.

Launch to space Kosmos 11K63 | DS-P1-Yu 49
Kosmos 11K63 | DS-P1-Yu 49

Agency: N/A

Status: Launch Successful

Launch date: Dec. 17, 1971, 10:39 a.m. UTC

Rocket: Kosmos 11K63

Launch pad: 133/3 (133L)

Location: Plesetsk Cosmodrome, Russian Federation

...

Latest news about this satellite

There are no fresh news available about this satellite. Check back as we update our databases every day.


Newsletter sign-up

Weekly statistics, charts and insights to help you stay on top of the space industry.